ROMMA est une association bénévole à but non lucratif. Votre soutien est indispensable : ADHERER à ROMMA ou FAIRE un DON

Chambon - (38, Isère)

Oisans (2460 m)   Longitude: 06° 10' 42" E   Latitude: 45° 01' 32" N Station partenaire n°803
 

Détail journalier du     <<     >>

Température Humidité Vent Dir Rafale Dir. rafale Neige 1 Neige 2
Heure (°C) (%) (km/h) (km/h) (cm) (cm)
01:00 -7.1969N27NNE073
02:00 -6.9975OSO16NO076
03:00 -6.7977OSO15ONO082
04:00 -7.39623SSO54SSO086
05:00 -7.99525SSO49SSO082
06:00 -8.69322SO50SO085
07:00 -8.59122SSO51SSO086
08:00 -8.58220S46SSO085
09:00 -8.27110SSE29SSE085
10:00 -6.14613SSE29S084
11:00 -5.13316S35SSO083
12:00 -4.82715SSO29SSO083
13:00 -4.52613SSO29SSO083
14:00 -4.93015SSO28SSO083
15:00 -5.4368S25S082
16:00 -6.4415NNE20S082
17:00 -7.1516N13NNE082
18:00 -7.5588N13NNE082
19:00 -7.7627N15NNE082
20:00 -7.7634N12NNE081
21:00 -7.2586NNE15NE081
22:00 -7.9684NE12NE081
23:00 -8.3755OSO10OSO081
minuit -9.1934NE11NE080

Graphique du 15-11-2019

 

Serveur OMMA